Location: Berlise
(49.6641°N, 4.1077°E)
Time: 23:33:58
(UTC+00:00)

Cosmos 2369 Rocket - Pass Details

Date: 27 January 2021
Orbit: 830 x 851 km, 71.0° (Epoch: 01 March)

Event Time Altitude Azimuth Distance (km) Brightness Sun altitude
Exits shadow 05:00:27 13° 342° (NNW) 2,251 4.2 -22.9°
Maximum altitude 05:05:15 44° 52° (NE) 1,134 3.2 -22.1°
Drops below altitude 10° 05:10:35 10° 125° (SE) 2,435 5.4 -21.2°
Sets 05:13:07 0° 132° (SE) 3,365 6.2 -20.8°
